LYS7FL LFLB-EDSB

Flight info

Callsign LYS7FL
Flight time N/A
Altitude 9000
Route CBY DCT PAS DCT PEL DCT BLM DCT REPDA DCT SUL SUL1L
Aircraft BE36/L-BDFGLORY/S

Departure

Time 2026-04-23 16:41
Airport Chambéry Aix les Bains airport (LFLB)

Arrival

Time N/A
Airport Karlsruhe Baden-Baden Airport (EDSB)
Time Latitude Longitude Altitude Speed Heading
2026-04-23 16:21 45.63558 5.88360 778 ft 0 kts 86°
2026-04-23 16:36 45.63553 5.88379 778 ft 7 kts 124°
2026-04-23 16:36 45.63531 5.88372 778 ft 7 kts 252°
2026-04-23 16:37 45.63541 5.88327 778 ft 0 kts 300°
2026-04-23 16:38 45.63550 5.88310 778 ft 0 kts 309°
2026-04-23 16:38 45.63550 5.88265 778 ft 3 kts 240°
2026-04-23 16:38 45.63469 5.88249 778 ft 24 kts 170°
2026-04-23 16:39 45.63313 5.88270 778 ft 12 kts 175°
2026-04-23 16:39 45.63275 5.88275 778 ft 4 kts 175°
2026-04-23 16:39 45.63196 5.88267 778 ft 14 kts 201°
2026-04-23 16:39 45.63151 5.88184 778 ft 16 kts 249°
2026-04-23 16:40 45.63139 5.88090 780 ft 14 kts 277°
2026-04-23 16:40 45.63197 5.88048 779 ft 19 kts
2026-04-23 16:40 45.63542 5.88034 789 ft 79 kts 356°
2026-04-23 16:40 45.64124 5.87989 905 ft 99 kts 354°
2026-04-23 16:41 45.64901 5.87884 1013 ft 118 kts 354°
2026-04-23 16:41 45.65753 5.87788 1139 ft 125 kts 355°
2026-04-23 16:41 45.66612 5.87699 1344 ft 123 kts 355°
2026-04-23 16:41 45.67465 5.87605 1554 ft 123 kts 355°
2026-04-23 16:42 45.68303 5.87507 1753 ft 123 kts 355°
2026-04-23 16:42 45.69139 5.87401 1948 ft 122 kts 354°
2026-04-23 16:42 45.70009 5.87295 2145 ft 122 kts 357°
2026-04-23 16:42 45.70800 5.86938 2319 ft 125 kts 335°
2026-04-23 16:43 45.71643 5.86336 2476 ft 144 kts 333°
2026-04-23 16:43 45.72574 5.85668 2690 ft 155 kts 334°
2026-04-23 16:43 45.73577 5.85027 2927 ft 161 kts 348°
2026-04-23 16:43 45.74664 5.85354 3161 ft 165 kts 25°
2026-04-23 16:44 45.75773 5.85811 3418 ft 167 kts 10°
2026-04-23 16:44 45.76928 5.86110 3686 ft 170 kts 11°
2026-04-23 16:44 45.78089 5.86470 3957 ft 171 kts 13°
2026-04-23 16:44 45.79257 5.86873 4237 ft 173 kts 13°
2026-04-23 16:45 45.80433 5.87289 4514 ft 175 kts 14°
2026-04-23 16:45 45.81619 5.87707 4786 ft 176 kts 13°
2026-04-23 16:45 45.82804 5.88124 5054 ft 175 kts 13°
2026-04-23 16:45 45.83983 5.88539 5315 ft 174 kts 13°
2026-04-23 16:46 45.85164 5.88954 5589 ft 175 kts 13°
2026-04-23 16:46 45.86352 5.89371 5876 ft 177 kts 13°
2026-04-23 16:46 45.87551 5.89793 6150 ft 178 kts 13°
2026-04-23 16:46 45.88750 5.90215 6420 ft 178 kts 13°
2026-04-23 16:47 45.89546 5.90495 6599 ft 177 kts 13°
2026-04-23 16:47 45.90747 5.90918 6864 ft 178 kts 13°
2026-04-23 16:47 45.91950 5.91341 7133 ft 178 kts 13°
2026-04-23 16:47 45.93152 5.91765 7395 ft 178 kts 13°
2026-04-23 16:48 45.94357 5.92191 7672 ft 179 kts 13°
2026-04-23 16:48 45.95565 5.92617 7947 ft 178 kts 13°
2026-04-23 16:48 45.96768 5.93041 8217 ft 178 kts 13°
2026-04-23 16:48 45.97964 5.93464 8467 ft 176 kts 13°
2026-04-23 16:49 45.99144 5.93882 8725 ft 174 kts 13°
2026-04-23 16:49 46.00317 5.94296 8984 ft 173 kts 13°
2026-04-23 16:49 46.01525 5.94722 9012 ft 185 kts 13°
2026-04-23 16:49 46.02792 5.95171 9013 ft 190 kts 13°
2026-04-23 16:50 46.04096 5.95634 9015 ft 195 kts 13°
2026-04-23 16:50 46.05429 5.96106 9012 ft 199 kts 13°
2026-04-23 16:50 46.06784 5.96587 9018 ft 201 kts 13°
2026-04-23 16:50 46.08142 5.97069 9013 ft 201 kts 13°
2026-04-23 16:51 46.09505 5.97552 9014 ft 202 kts 13°
2026-04-23 16:51 46.10871 5.98037 9015 ft 203 kts 13°
2026-04-23 16:51 46.12241 5.98524 9017 ft 203 kts 13°
2026-04-23 16:51 46.13608 5.99009 9012 ft 203 kts 13°
2026-04-23 16:52 46.14978 5.99496 9012 ft 203 kts 14°
2026-04-23 16:52 46.16261 6.00299 9013 ft 203 kts 37°
2026-04-23 16:52 46.17168 6.01844 9010 ft 203 kts 56°
2026-04-23 16:52 46.17893 6.03593 9023 ft 203 kts 60°
2026-04-23 16:53 46.18594 6.05361 9012 ft 203 kts 59°
2026-04-23 16:53 46.19309 6.07118 9015 ft 203 kts 59°
2026-04-23 16:53 46.20032 6.08871 9012 ft 203 kts 59°
2026-04-23 16:53 46.20752 6.10615 9011 ft 203 kts 59°
2026-04-23 16:54 46.21479 6.12382 9015 ft 204 kts 59°
2026-04-23 16:54 46.22203 6.14144 9016 ft 204 kts 59°
2026-04-23 16:54 46.22927 6.15906 9023 ft 204 kts 59°
2026-04-23 16:54 46.23649 6.17665 9017 ft 203 kts 59°
2026-04-23 16:55 46.24370 6.19424 9019 ft 204 kts 59°
2026-04-23 16:55 46.25092 6.21184 9030 ft 204 kts 59°
2026-04-23 16:55 46.25814 6.22947 9022 ft 204 kts 59°
2026-04-23 16:55 46.26534 6.24707 9026 ft 203 kts 59°
2026-04-23 16:56 46.27255 6.26469 9029 ft 204 kts 59°
2026-04-23 16:56 46.27980 6.28243 9032 ft 205 kts 59°
2026-04-23 16:56 46.28708 6.30022 9035 ft 205 kts 59°
2026-04-23 16:56 46.29432 6.31795 9032 ft 205 kts 59°
2026-04-23 16:57 46.30144 6.33541 9032 ft 204 kts 59°
2026-04-23 16:57 46.30882 6.35325 9030 ft 203 kts 55°
2026-04-23 16:57 46.31783 6.36865 9029 ft 203 kts 47°
2026-04-23 16:57 46.32736 6.38378 9027 ft 204 kts 47°
2026-04-23 16:58 46.33690 6.39894 9028 ft 203 kts 47°
2026-04-23 16:58 46.34641 6.41408 9028 ft 203 kts 47°
2026-04-23 16:58 46.35591 6.42922 9028 ft 203 kts 47°
2026-04-23 16:58 46.36540 6.44441 9031 ft 203 kts 47°
2026-04-23 16:59 46.37488 6.45959 9030 ft 204 kts 47°
2026-04-23 16:59 46.38439 6.47484 9034 ft 204 kts 47°
2026-04-23 16:59 46.39389 6.49012 9036 ft 204 kts 47°
2026-04-23 16:59 46.40336 6.50541 9035 ft 203 kts 47°
2026-04-23 17:00 46.41281 6.52069 9038 ft 204 kts 48°
2026-04-23 17:00 46.42230 6.53606 9042 ft 204 kts 48°
2026-04-23 17:00 46.43176 6.55142 9042 ft 204 kts 48°
2026-04-23 17:00 46.44117 6.56676 9040 ft 203 kts 48°
2026-04-23 17:01 46.44939 6.58019 9039 ft 203 kts 48°
2026-04-23 17:01 46.45875 6.59551 9037 ft 203 kts 48°
2026-04-23 17:01 46.46810 6.61086 9036 ft 203 kts 48°
2026-04-23 17:01 46.47743 6.62622 9036 ft 203 kts 48°
2026-04-23 17:02 46.48675 6.64158 9041 ft 204 kts 48°
2026-04-23 17:02 46.49611 6.65705 9043 ft 204 kts 48°
2026-04-23 17:02 46.50549 6.67258 9043 ft 204 kts 48°
2026-04-23 17:02 46.51484 6.68808 9042 ft 204 kts 49°
2026-04-23 17:03 46.52417 6.70360 9043 ft 204 kts 49°
2026-04-23 17:03 46.53349 6.71913 9043 ft 204 kts 49°
2026-04-23 17:03 46.54282 6.73471 9043 ft 204 kts 49°
2026-04-23 17:03 46.55212 6.75027 9042 ft 204 kts 49°
2026-04-23 17:04 46.56141 6.76587 9046 ft 205 kts 49°
2026-04-23 17:04 46.57074 6.78156 9050 ft 205 kts 49°
2026-04-23 17:04 46.57981 6.79686 9049 ft 205 kts 49°
2026-04-23 17:04 46.58910 6.81257 9048 ft 205 kts 49°
2026-04-23 17:05 46.59830 6.82816 9049 ft 205 kts 49°
2026-04-23 17:05 46.60754 6.84390 9050 ft 205 kts 49°
2026-04-23 17:05 46.61675 6.85966 9051 ft 204 kts 49°
2026-04-23 17:05 46.62595 6.87544 9052 ft 204 kts 49°
2026-04-23 17:06 46.63527 6.89099 9050 ft 204 kts 46°
2026-04-23 17:06 46.64587 6.90470 9050 ft 204 kts 35°
2026-04-23 17:06 46.65828 6.91461 9047 ft 204 kts 24°
2026-04-23 17:06 46.67144 6.92215 9050 ft 203 kts 21°
2026-04-23 17:07 46.68462 6.92940 9057 ft 203 kts 21°
2026-04-23 17:07 46.69779 6.93703 9060 ft 204 kts 22°
2026-04-23 17:07 46.71094 6.94484 9059 ft 204 kts 22°
2026-04-23 17:07 46.72335 6.95221 9049 ft 166 kts 22°
2026-04-23 17:08 46.73213 6.95740 9029 ft 109 kts 22°
2026-04-23 17:08 46.73791 6.96078 8774 ft 69 kts 23°
2026-04-23 17:08 46.74250 6.96366 7939 ft 102 kts 27°
2026-04-23 17:08 46.75049 6.96977 6727 ft 143 kts 28°
2026-04-23 17:09 46.75637 6.97440 6046 ft 150 kts 29°